Time,TemperatureF,DewpointF,PressureIn,WindDirection,WindDirectionDegrees,WindSpeedMPH,WindSpeedGustMPH,Humidity,HourlyPrecipIn,Conditions,Clouds,dailyrainin,SoftwareType,DateUTC
2013-04-15 00:00:00,70.6,62.3,29.98,North,5,4.0,15.0,75,0.00,,,0.05,Wunderground v.1.13,2013-04-15 04:00:00,
2013-04-15 00:02:00,70.6,62.3,29.98,North,360,4.0,15.0,75,0.00,,,0.05,Wunderground v.1.13,2013-04-15 04:02:00,
2013-04-15 00:04:00,70.5,62.2,29.98,North,360,4.0,15.0,75,0.00,,,0.05,Wunderground v.1.13,2013-04-15 04:04:00,
2013-04-15 00:08:00,70.5,62.6,29.97,North,360,3.0,6.0,76,0.00,,,0.05,Wunderground v.1.13,2013-04-15 04:08:00,
2013-04-15 00:14:00,70.4,62.5,29.97,NE,43,3.0,3.0,76,0.00,,,0.05,Wunderground v.1.13,2013-04-15 04:14:00,
2013-04-15 00:20:00,70.3,62.4,29.97,North,355,4.0,17.0,76,0.00,,,0.05,Wunderground v.1.13,2013-04-15 04:20:00,
2013-04-15 00:28:00,70.2,62.3,29.97,North,360,4.0,17.0,76,0.00,,,0.05,Wunderground v.1.13,2013-04-15 04:28:00,
2013-04-15 00:34:00,70.1,62.2,29.97,North,360,3.0,17.0,76,0.00,,,0.05,Wunderground v.1.13,2013-04-15 04:34:00,
2013-04-15 00:40:00,70.0,62.5,29.96,NE,40,3.0,17.0,77,0.00,,,0.00,Wunderground v.1.13,2013-04-15 04:40:00,
2013-04-15 00:46:00,70.1,62.2,29.96,NNE,17,3.0,17.0,76,0.00,,,0.00,Wunderground v.1.13,2013-04-15 04:46:00,
2013-04-15 00:52:00,70.1,62.2,29.96,NNW,336,3.0,17.0,76,0.00,,,0.00,Wunderground v.1.13,2013-04-15 04:52:00,
2013-04-15 00:58:00,70.0,62.5,29.96,NNW,336,2.0,17.0,77,0.00,,,0.00,Wunderground v.1.13,2013-04-15 04:58:00,
2013-04-15 01:04:00,69.9,62.4,29.96,NNW,336,1.0,17.0,77,0.00,,,0.00,Wunderground v.1.13,2013-04-15 05:04:00,
2013-04-15 01:10:00,69.9,62.4,29.96,NNW,336,0.0,0.0,77,0.00,,,0.00,Wunderground v.1.13,2013-04-15 05:10:00,
2013-04-15 01:16:00,69.8,62.3,29.96,NNW,336,0.0,9.0,77,0.00,,,0.00,Wunderground v.1.13,2013-04-15 05:16:00,
2013-04-15 01:22:00,69.7,62.5,29.96,NNW,336,0.0,9.0,78,0.00,,,0.00,Wunderground v.1.13,2013-04-15 05:22:00,
2013-04-15 01:28:00,69.6,62.4,29.97,NNW,336,0.0,9.0,78,0.00,,,0.00,Wunderground v.1.13,2013-04-15 05:28:00,
2013-04-15 01:34:00,69.7,62.5,29.96,NNW,336,0.0,9.0,78,0.00,,,0.00,Wunderground v.1.13,2013-04-15 05:34:00,
2013-04-15 01:40:00,69.6,62.8,29.96,NNW,336,0.0,9.0,79,0.00,,,0.00,Wunderground v.1.13,2013-04-15 05:40:00,
2013-04-15 01:46:00,69.6,62.8,29.96,NNW,336,0.0,9.0,79,0.00,,,0.00,Wunderground v.1.13,2013-04-15 05:46:00,
2013-04-15 01:52:00,69.6,62.8,29.96,NNW,336,0.0,9.0,79,0.00,,,0.00,Wunderground v.1.13,2013-04-15 05:52:00,
2013-04-15 01:58:00,69.6,63.5,29.96,NNW,336,0.0,9.0,81,0.00,,,0.00,Wunderground v.1.13,2013-04-15 05:58:00,
2013-04-15 02:04:00,69.5,63.8,29.96,NNW,336,0.0,9.0,82,0.00,,,0.00,Wunderground v.1.13,2013-04-15 06:04:00,
2013-04-15 02:10:00,69.5,63.4,29.96,NNW,336,0.0,0.0,81,0.00,,,0.00,Wunderground v.1.13,2013-04-15 06:10:00,
2013-04-15 02:16:00,69.6,63.2,29.96,NNW,336,0.0,0.0,80,0.00,,,0.00,Wunderground v.1.13,2013-04-15 06:16:00,
2013-04-15 02:22:00,69.7,63.3,29.96,NNW,336,0.0,0.0,80,0.00,,,0.00,Wunderground v.1.13,2013-04-15 06:22:00,
2013-04-15 02:28:00,69.8,63.3,29.95,NNW,336,0.0,0.0,80,0.00,,,0.00,Wunderground v.1.13,2013-04-15 06:28:00,
2013-04-15 02:34:00,69.8,63.7,29.96,NNW,336,0.0,0.0,81,0.00,,,0.00,Wunderground v.1.13,2013-04-15 06:34:00,
2013-04-15 02:40:00,69.8,64.1,29.96,NNW,336,0.0,0.0,82,0.00,,,0.00,Wunderground v.1.13,2013-04-15 06:40:00,
2013-04-15 02:46:00,69.6,63.9,29.96,NNW,336,0.0,0.0,82,0.00,,,0.00,Wunderground v.1.13,2013-04-15 06:46:00,
2013-04-15 02:52:00,69.5,63.8,29.95,NNW,336,0.0,0.0,82,0.00,,,0.00,Wunderground v.1.13,2013-04-15 06:52:00,
2013-04-15 02:58:00,69.5,63.8,29.95,NNW,336,0.0,0.0,82,0.00,,,0.00,Wunderground v.1.13,2013-04-15 06:58:00,
2013-04-15 03:04:00,69.7,64.3,29.95,NNW,336,0.0,0.0,83,0.00,,,0.00,Wunderground v.1.13,2013-04-15 07:04:00,
2013-04-15 03:44:00,69.7,64.6,29.95,NNW,336,0.0,0.0,84,0.00,,,0.00,Wunderground v.1.13,2013-04-15 07:44:00,
2013-04-15 03:46:00,69.7,64.6,29.95,NNW,336,0.0,0.0,84,0.00,,,0.00,Wunderground v.1.13,2013-04-15 07:46:00,
2013-04-15 03:48:00,69.7,64.6,29.95,NNW,336,0.0,0.0,84,0.00,,,0.00,Wunderground v.1.13,2013-04-15 07:48:00,
2013-04-15 03:50:00,69.6,64.5,29.96,NNW,336,0.0,0.0,84,0.00,,,0.00,Wunderground v.1.13,2013-04-15 07:50:00,
2013-04-15 03:56:00,69.6,64.9,29.96,NNW,336,0.0,0.0,85,0.00,,,0.00,Wunderground v.1.13,2013-04-15 07:56:00,
2013-04-15 04:02:00,69.6,64.9,29.96,NNW,336,0.0,0.0,85,0.00,,,0.00,Wunderground v.1.13,2013-04-15 08:02:00,
2013-04-15 04:08:00,69.4,64.4,29.96,NNW,336,0.0,0.0,84,0.00,,,0.00,Wunderground v.1.13,2013-04-15 08:08:00,
2013-04-15 04:14:00,69.3,64.3,29.97,NNW,336,0.0,0.0,84,0.00,,,0.00,Wunderground v.1.13,2013-04-15 08:14:00,
2013-04-15 04:20:00,69.2,64.2,29.97,NNW,336,0.0,0.0,84,0.00,,,0.00,Wunderground v.1.13,2013-04-15 08:20:00,
2013-04-15 04:28:00,69.2,64.2,29.97,NNW,336,0.0,0.0,84,0.00,,,0.00,Wunderground v.1.13,2013-04-15 08:28:00,
2013-04-15 04:34:00,69.2,64.2,29.96,NNW,336,0.0,0.0,84,0.00,,,0.00,Wunderground v.1.13,2013-04-15 08:34:00,
2013-04-15 04:38:00,69.3,64.3,29.97,NNW,336,0.0,0.0,84,0.00,,,0.00,Wunderground v.1.13,2013-04-15 08:38:00,
2013-04-15 04:40:00,69.3,64.3,29.96,NNW,336,0.0,0.0,84,0.00,,,0.00,Wunderground v.1.13,2013-04-15 08:40:00,
2013-04-15 04:44:00,69.5,64.5,29.96,NNW,336,0.0,0.0,84,0.00,,,0.00,Wunderground v.1.13,2013-04-15 08:44:00,
2013-04-15 04:46:00,69.4,64.0,29.96,NNW,336,0.0,0.0,83,0.00,,,0.00,Wunderground v.1.13,2013-04-15 08:46:00,
2013-04-15 04:50:00,69.4,64.0,29.96,NNW,336,0.0,0.0,83,0.00,,,0.00,Wunderground v.1.13,2013-04-15 08:50:00,
2013-04-15 04:56:00,69.5,64.1,29.95,NNW,336,0.0,0.0,83,0.00,,,0.00,Wunderground v.1.13,2013-04-15 08:56:00,
2013-04-15 05:02:00,69.5,64.1,29.94,NNW,336,0.0,0.0,83,0.00,,,0.00,Wunderground v.1.13,2013-04-15 09:02:00,
2013-04-15 05:08:00,69.4,63.7,29.94,NNW,336,0.0,0.0,82,0.00,,,0.00,Wunderground v.1.13,2013-04-15 09:08:00,
2013-04-15 05:14:00,69.5,64.1,29.95,NNW,336,0.0,0.0,83,0.00,,,0.00,Wunderground v.1.13,2013-04-15 09:14:00,
2013-04-15 05:20:00,69.5,64.5,29.95,NNW,336,0.0,0.0,84,0.00,,,0.00,Wunderground v.1.13,2013-04-15 09:20:00,
2013-04-15 05:26:00,69.5,64.5,29.94,NNW,336,0.0,0.0,84,0.00,,,0.00,Wunderground v.1.13,2013-04-15 09:26:00,
2013-04-15 05:32:00,69.4,64.4,29.94,NNW,336,0.0,0.0,84,0.00,,,0.00,Wunderground v.1.13,2013-04-15 09:32:00,
2013-04-15 05:38:00,69.3,64.3,29.94,NNW,336,0.0,0.0,84,0.00,,,0.00,Wunderground v.1.13,2013-04-15 09:38:00,
2013-04-15 05:44:00,69.2,64.2,29.94,NNW,336,0.0,0.0,84,0.00,,,0.00,Wunderground v.1.13,2013-04-15 09:44:00,
2013-04-15 05:50:00,69.3,64.3,29.94,NNW,336,0.0,0.0,84,0.00,,,0.00,Wunderground v.1.13,2013-04-15 09:50:00,
2013-04-15 05:56:00,69.3,64.3,29.94,NNW,336,0.0,0.0,84,0.00,,,0.00,Wunderground v.1.13,2013-04-15 09:56:00,
2013-04-15 06:02:00,69.3,64.3,29.95,West,259,0.0,0.0,84,0.00,,,0.00,Wunderground v.1.13,2013-04-15 10:02:00,
2013-04-15 06:08:00,69.3,63.6,29.94,SSW,196,0.0,0.0,82,0.00,,,0.00,Wunderground v.1.13,2013-04-15 10:08:00,
2013-04-15 06:14:00,69.5,63.8,29.94,SSW,196,0.0,0.0,82,0.00,,,0.00,Wunderground v.1.13,2013-04-15 10:14:00,
2013-04-15 06:20:00,69.8,64.1,29.94,South,186,0.0,0.0,82,0.00,,,0.00,Wunderground v.1.13,2013-04-15 10:20:00,
2013-04-15 06:26:00,69.9,64.2,29.94,SSW,196,0.0,0.0,82,0.00,,,0.00,Wunderground v.1.13,2013-04-15 10:26:00,
2013-04-15 06:32:00,70.0,64.2,29.93,SSW,195,0.0,0.0,82,0.00,,,0.00,Wunderground v.1.13,2013-04-15 10:32:00,
2013-04-15 06:38:00,70.1,64.0,29.93,South,172,0.0,0.0,81,0.00,,,0.00,Wunderground v.1.13,2013-04-15 10:38:00,
2013-04-15 06:44:00,70.3,64.2,29.93,South,182,0.0,0.0,81,0.00,,,0.00,Wunderground v.1.13,2013-04-15 10:44:00,
2013-04-15 06:50:00,70.4,63.9,29.93,South,184,0.0,0.0,80,0.00,,,0.00,Wunderground v.1.13,2013-04-15 10:50:00,
2013-04-15 06:56:00,70.6,64.1,29.94,SSW,202,0.0,0.0,80,0.00,,,0.00,Wunderground v.1.13,2013-04-15 10:56:00,
2013-04-15 07:02:00,70.8,64.3,29.94,SSW,207,0.0,0.0,80,0.00,,,0.00,Wunderground v.1.13,2013-04-15 11:02:00,
2013-04-15 07:08:00,71.0,64.5,29.94,SSW,199,0.0,0.0,80,0.00,,,0.00,Wunderground v.1.13,2013-04-15 11:08:00,
2013-04-15 07:14:00,71.1,64.6,29.94,SSW,207,0.0,0.0,80,0.00,,,0.00,Wunderground v.1.13,2013-04-15 11:14:00,
2013-04-15 07:20:00,71.2,64.7,29.95,SSW,194,0.0,0.0,80,0.00,,,0.00,Wunderground v.1.13,2013-04-15 11:20:00,
2013-04-15 07:28:00,71.4,64.5,29.95,SSW,199,0.0,0.0,79,0.00,,,0.00,Wunderground v.1.13,2013-04-15 11:28:00,
2013-04-15 07:34:00,71.4,64.5,29.95,SSW,199,0.0,0.0,79,0.00,,,0.00,Wunderground v.1.13,2013-04-15 11:34:00,
2013-04-15 07:40:00,71.4,64.9,29.97,SSW,200,0.0,0.0,80,0.00,,,0.00,Wunderground v.1.13,2013-04-15 11:40:00,
2013-04-15 07:46:00,71.3,64.8,29.97,SSW,201,0.0,0.0,80,0.00,,,0.00,Wunderground v.1.13,2013-04-15 11:46:00,
2013-04-15 07:52:00,71.3,64.8,29.97,SSW,201,0.0,0.0,80,0.00,,,0.00,Wunderground v.1.13,2013-04-15 11:52:00,
2013-04-15 07:58:00,71.5,65.0,29.97,SSW,200,0.0,0.0,80,0.00,,,0.00,Wunderground v.1.13,2013-04-15 11:58:00,
2013-04-15 08:04:00,71.9,65.4,29.97,SSW,199,0.0,0.0,80,0.00,,,0.00,Wunderground v.1.13,2013-04-15 12:04:00,
2013-04-15 08:10:00,72.0,65.1,29.97,SSW,194,0.0,0.0,79,0.00,,,0.00,Wunderground v.1.13,2013-04-15 12:10:00,
2013-04-15 08:16:00,72.3,65.1,29.97,SSW,200,0.0,2.0,78,0.00,,,0.00,Wunderground v.1.13,2013-04-15 12:16:00,
2013-04-15 08:22:00,72.5,65.6,29.97,SSW,200,0.0,0.0,79,0.00,,,0.00,Wunderground v.1.13,2013-04-15 12:22:00,
2013-04-15 08:28:00,72.6,65.7,29.97,SSW,192,0.0,0.0,79,0.00,,,0.00,Wunderground v.1.13,2013-04-15 12:28:00,
2013-04-15 08:34:00,72.9,66.4,29.97,South,190,0.0,3.0,80,0.00,,,0.00,Wunderground v.1.13,2013-04-15 12:34:00,
2013-04-15 08:40:00,73.1,66.6,29.97,SSW,205,0.0,1.0,80,0.00,,,0.00,Wunderground v.1.13,2013-04-15 12:40:00,
2013-04-15 08:46:00,73.1,66.6,29.97,SSW,210,0.0,0.0,80,0.00,,,0.00,Wunderground v.1.13,2013-04-15 12:46:00,
2013-04-15 08:52:00,73.3,66.8,29.97,South,190,0.0,0.0,80,0.00,,,0.00,Wunderground v.1.13,2013-04-15 12:52:00,
2013-04-15 09:02:00,73.5,66.6,29.97,SSW,199,0.0,0.0,79,0.00,,,0.00,Wunderground v.1.13,2013-04-15 13:02:00,
2013-04-15 09:08:00,73.6,66.7,29.97,South,178,0.0,1.0,79,0.00,,,0.00,Wunderground v.1.13,2013-04-15 13:08:00,
2013-04-15 09:14:00,73.5,66.6,29.96,SSE,156,1.0,1.0,79,0.00,,,0.00,Wunderground v.1.13,2013-04-15 13:14:00,
2013-04-15 09:20:00,73.5,66.2,29.97,South,175,1.0,3.0,78,0.00,,,0.00,Wunderground v.1.13,2013-04-15 13:20:00,
2013-04-15 09:26:00,73.6,66.7,29.97,South,180,1.0,3.0,79,0.00,,,0.00,Wunderground v.1.13,2013-04-15 13:26:00,
2013-04-15 09:32:00,73.7,66.4,29.98,South,173,0.0,3.0,78,0.00,,,0.00,Wunderground v.1.13,2013-04-15 13:32:00,
2013-04-15 09:38:00,73.8,66.5,29.98,South,173,0.0,3.0,78,0.00,,,0.00,Wunderground v.1.13,2013-04-15 13:38:00,
2013-04-15 09:44:00,73.9,66.6,29.98,SE,137,0.0,3.0,78,0.00,,,0.00,Wunderground v.1.13,2013-04-15 13:44:00,
2013-04-15 09:50:00,74.0,66.7,29.98,SSE,150,0.0,3.0,78,0.00,,,0.00,Wunderground v.1.13,2013-04-15 13:50:00,
2013-04-15 09:56:00,74.3,67.0,29.98,SSE,150,0.0,3.0,78,0.00,,,0.00,Wunderground v.1.13,2013-04-15 13:56:00,
2013-04-15 10:02:00,75.0,67.3,29.98,SSW,194,0.0,3.0,77,0.00,,,0.00,Wunderground v.1.13,2013-04-15 14:02:00,
2013-04-15 10:08:00,75.5,67.4,29.98,SSE,164,0.0,0.0,76,0.00,,,0.00,Wunderground v.1.13,2013-04-15 14:08:00,
2013-04-15 10:14:00,75.9,67.0,29.98,SE,130,0.0,0.0,74,0.00,,,0.00,Wunderground v.1.13,2013-04-15 14:14:00,
2013-04-15 10:22:00,76.7,67.0,29.98,SE,138,0.0,0.0,72,0.00,,,0.00,Wunderground v.1.13,2013-04-15 14:22:00,
2013-04-15 10:28:00,77.5,67.4,29.98,SE,138,0.0,0.0,71,0.00,,,0.00,Wunderground v.1.13,2013-04-15 14:28:00,
2013-04-15 10:34:00,78.1,67.5,29.99,SE,138,0.0,0.0,70,0.00,,,0.00,Wunderground v.1.13,2013-04-15 14:34:00,
2013-04-15 10:40:00,78.4,67.4,29.99,SE,138,0.0,0.0,69,0.00,,,0.00,Wunderground v.1.13,2013-04-15 14:40:00,
2013-04-15 10:48:00,79.1,67.2,30.00,East,99,0.0,0.0,67,0.00,,,0.00,Wunderground v.1.13,2013-04-15 14:48:00,
2013-04-15 10:54:00,79.7,66.9,30.00,East,96,0.0,0.0,65,0.00,,,0.00,Wunderground v.1.13,2013-04-15 14:54:00,
2013-04-15 11:00:00,79.0,68.4,30.00,NNE,28,1.0,2.0,70,0.00,,,0.00,Wunderground v.1.13,2013-04-15 15:00:00,
2013-04-15 11:08:00,77.5,66.9,30.01,ENE,57,2.0,2.0,70,0.00,,,0.00,Wunderground v.1.13,2013-04-15 15:08:00,
2013-04-15 11:14:00,77.2,67.5,30.01,ENE,67,1.0,4.0,72,0.00,,,0.00,Wunderground v.1.13,2013-04-15 15:14:00,
2013-04-15 11:20:00,76.8,67.1,30.01,ENE,72,1.0,3.0,72,0.00,,,0.00,Wunderground v.1.13,2013-04-15 15:20:00,
2013-04-15 11:28:00,76.8,67.5,30.01,NE,51,1.0,1.0,73,0.00,,,0.00,Wunderground v.1.13,2013-04-15 15:28:00,
2013-04-15 11:34:00,76.7,67.8,30.02,ENE,57,1.0,4.0,74,0.00,,,0.00,Wunderground v.1.13,2013-04-15 15:34:00,
2013-04-15 11:40:00,76.7,67.0,30.02,NNE,32,1.0,1.0,72,0.00,,,0.00,Wunderground v.1.13,2013-04-15 15:40:00,
2013-04-15 11:46:00,76.9,66.8,30.02,NE,43,1.0,1.0,71,0.00,,,0.00,Wunderground v.1.13,2013-04-15 15:46:00,
2013-04-15 11:52:00,77.7,66.7,30.02,NE,55,0.0,0.0,69,0.00,,,0.00,Wunderground v.1.13,2013-04-15 15:52:00,
2013-04-15 11:58:00,78.5,67.1,30.02,NE,54,0.0,0.0,68,0.00,,,0.00,Wunderground v.1.13,2013-04-15 15:58:00,
2013-04-15 12:04:00,79.3,66.5,30.02,NE,47,0.0,0.0,65,0.00,,,0.00,Wunderground v.1.13,2013-04-15 16:04:00,
2013-04-15 12:10:00,79.9,66.2,30.02,NE,46,0.0,0.0,63,0.00,,,0.00,Wunderground v.1.13,2013-04-15 16:10:00,
2013-04-15 12:18:00,80.5,65.8,30.02,ENE,63,0.0,5.0,61,0.00,,,0.00,Wunderground v.1.13,2013-04-15 16:18:00,
2013-04-15 12:24:00,80.8,66.1,30.02,ENE,78,0.0,4.0,61,0.00,,,0.00,Wunderground v.1.13,2013-04-15 16:24:00,
2013-04-15 12:30:00,81.3,66.1,30.02,ENE,78,0.0,4.0,60,0.00,,,0.00,Wunderground v.1.13,2013-04-15 16:30:00,
2013-04-15 12:36:00,81.9,66.2,30.02,East,80,0.0,4.0,59,0.00,,,0.00,Wunderground v.1.13,2013-04-15 16:36:00,
2013-04-15 12:42:00,82.5,66.2,30.02,ENE,74,0.0,4.0,58,0.00,,,0.00,Wunderground v.1.13,2013-04-15 16:42:00,
2013-04-15 12:48:00,82.3,66.5,30.01,ENE,71,1.0,1.0,59,0.00,,,0.00,Wunderground v.1.13,2013-04-15 16:48:00,
2013-04-15 12:54:00,82.6,67.3,30.01,ENE,69,1.0,1.0,60,0.00,,,0.00,Wunderground v.1.13,2013-04-15 16:54:00,
2013-04-15 13:00:00,83.2,67.4,30.01,ENE,72,0.0,4.0,59,0.00,,,0.00,Wunderground v.1.13,2013-04-15 17:00:00,
2013-04-15 13:06:00,82.9,67.6,30.00,ENE,65,0.0,0.0,60,0.00,,,0.00,Wunderground v.1.13,2013-04-15 17:06:00,
2013-04-15 13:12:00,83.0,67.2,30.01,East,88,1.0,1.0,59,0.00,,,0.00,Wunderground v.1.13,2013-04-15 17:12:00,
2013-04-15 13:18:00,83.0,67.7,30.00,NE,53,1.0,1.0,60,0.00,,,0.00,Wunderground v.1.13,2013-04-15 17:18:00,
2013-04-15 13:22:00,83.0,67.7,30.00,NNE,32,0.0,7.0,60,0.00,,,0.00,Wunderground v.1.13,2013-04-15 17:22:00,
2013-04-15 13:24:00,83.2,68.3,30.00,NE,46,0.0,7.0,61,0.00,,,0.00,Wunderground v.1.13,2013-04-15 17:24:00,
2013-04-15 13:28:00,83.3,68.0,30.01,NE,39,0.0,7.0,60,0.00,,,0.00,Wunderground v.1.13,2013-04-15 17:28:00,
2013-04-15 13:34:00,83.4,68.1,30.00,NE,49,0.0,7.0,60,0.00,,,0.00,Wunderground v.1.13,2013-04-15 17:34:00,
2013-04-15 13:36:00,83.5,68.6,30.01,NE,50,0.0,7.0,61,0.00,,,0.00,Wunderground v.1.13,2013-04-15 17:36:00,
2013-04-15 13:38:00,83.5,68.2,30.01,NE,49,0.0,7.0,60,0.00,,,0.00,Wunderground v.1.13,2013-04-15 17:38:00,
2013-04-15 13:44:00,84.0,68.1,30.01,ENE,71,0.0,7.0,59,0.00,,,0.00,Wunderground v.1.13,2013-04-15 17:44:00,
2013-04-15 13:50:00,84.0,68.1,30.00,ENE,68,0.0,7.0,59,0.00,,,0.00,Wunderground v.1.13,2013-04-15 17:50:00,
2013-04-15 13:56:00,83.8,67.4,30.00,ENE,62,0.0,7.0,58,0.00,,,0.00,Wunderground v.1.13,2013-04-15 17:56:00,
2013-04-15 14:04:00,84.1,68.2,30.00,SE,140,0.0,7.0,59,0.00,,,0.00,Wunderground v.1.13,2013-04-15 18:04:00,
2013-04-15 14:10:00,84.5,68.1,30.00,ESE,105,0.0,0.0,58,0.00,,,0.00,Wunderground v.1.13,2013-04-15 18:10:00,
2013-04-15 14:18:00,85.1,69.2,30.00,East,80,0.0,5.0,59,0.00,,,0.00,Wunderground v.1.13,2013-04-15 18:18:00,
2013-04-15 14:24:00,85.9,69.9,30.00,ENE,71,0.0,5.0,59,0.00,,,0.00,Wunderground v.1.13,2013-04-15 18:24:00,
2013-04-15 14:30:00,86.0,69.0,30.00,ENE,67,0.0,5.0,57,0.00,,,0.00,Wunderground v.1.13,2013-04-15 18:30:00,
2013-04-15 14:32:00,85.9,68.4,29.99,ENE,68,0.0,5.0,56,0.00,,,0.00,Wunderground v.1.13,2013-04-15 18:32:00,
2013-04-15 14:34:00,85.6,69.1,30.00,ENE,73,0.0,5.0,58,0.00,,,0.00,Wunderground v.1.13,2013-04-15 18:34:00,
2013-04-15 14:40:00,85.3,69.3,30.00,ENE,69,0.0,5.0,59,0.00,,,0.00,Wunderground v.1.13,2013-04-15 18:40:00,
2013-04-15 14:44:00,85.6,69.6,29.99,ENE,65,0.0,5.0,59,0.00,,,0.00,Wunderground v.1.13,2013-04-15 18:44:00,
2013-04-15 14:50:00,85.6,69.1,29.99,NE,47,1.0,5.0,58,0.00,,,0.00,Wunderground v.1.13,2013-04-15 18:50:00,
2013-04-15 14:56:00,85.6,69.1,29.99,NE,44,0.0,5.0,58,0.00,,,0.00,Wunderground v.1.13,2013-04-15 18:56:00,
2013-04-15 14:58:00,85.7,69.2,29.99,NE,48,0.0,5.0,58,0.00,,,0.00,Wunderground v.1.13,2013-04-15 18:58:00,
2013-04-15 15:04:00,86.1,69.6,29.99,NE,54,0.0,5.0,58,0.00,,,0.00,Wunderground v.1.13,2013-04-15 19:04:00,
2013-04-15 15:10:00,86.4,69.4,29.98,NNE,32,0.0,4.0,57,0.00,,,0.00,Wunderground v.1.13,2013-04-15 19:10:00,
2013-04-15 15:16:00,86.3,70.3,29.98,NE,36,0.0,6.0,59,0.00,,,0.00,Wunderground v.1.13,2013-04-15 19:16:00,
2013-04-15 15:22:00,86.2,69.7,29.98,NE,51,0.0,6.0,58,0.00,,,0.00,Wunderground v.1.13,2013-04-15 19:22:00,
2013-04-15 15:28:00,85.8,69.8,29.98,ENE,59,0.0,6.0,59,0.00,,,0.00,Wunderground v.1.13,2013-04-15 19:28:00,
2013-04-15 15:34:00,86.1,70.1,29.97,NE,36,0.0,6.0,59,0.00,,,0.00,Wunderground v.1.13,2013-04-15 19:34:00,
2013-04-15 15:40:00,86.4,70.9,29.97,NNW,331,0.0,6.0,60,0.00,,,0.00,Wunderground v.1.13,2013-04-15 19:40:00,
2013-04-15 15:48:00,86.6,71.5,29.97,North,360,0.0,6.0,61,0.00,,,0.00,Wunderground v.1.13,2013-04-15 19:48:00,
2013-04-15 15:54:00,86.8,71.7,29.96,North,360,0.0,6.0,61,0.00,,,0.00,Wunderground v.1.13,2013-04-15 19:54:00,
2013-04-15 16:00:00,87.0,72.4,29.97,North,355,0.0,6.0,62,0.00,,,0.00,Wunderground v.1.13,2013-04-15 20:00:00,
2013-04-15 16:04:00,87.3,72.7,29.97,WNW,292,0.0,6.0,62,0.00,,,0.00,Wunderground v.1.13,2013-04-15 20:04:00,
2013-04-15 16:06:00,87.4,72.3,29.97,NW,321,0.0,0.0,61,0.00,,,0.00,Wunderground v.1.13,2013-04-15 20:06:00,
2013-04-15 16:08:00,87.4,72.3,29.96,WNW,286,0.0,0.0,61,0.00,,,0.00,Wunderground v.1.13,2013-04-15 20:08:00,
2013-04-15 16:14:00,87.9,72.8,29.96,WSW,257,0.0,2.0,61,0.00,,,0.00,Wunderground v.1.13,2013-04-15 20:14:00,
2013-04-15 16:20:00,87.1,72.5,29.96,West,273,1.0,5.0,62,0.00,,,0.00,Wunderground v.1.13,2013-04-15 20:20:00,
2013-04-15 16:22:00,86.9,72.3,29.96,West,263,1.0,5.0,62,0.00,,,0.00,Wunderground v.1.13,2013-04-15 20:22:00,
2013-04-15 16:28:00,86.8,72.7,29.96,NW,315,0.0,5.0,63,0.00,,,0.00,Wunderground v.1.13,2013-04-15 20:28:00,
2013-04-15 16:34:00,86.1,71.6,29.96,West,281,1.0,7.0,62,0.00,,,0.00,Wunderground v.1.13,2013-04-15 20:34:00,
2013-04-15 16:40:00,85.9,71.8,29.96,WNW,300,1.0,5.0,63,0.00,,,0.00,Wunderground v.1.13,2013-04-15 20:40:00,
2013-04-15 16:46:00,85.6,70.6,29.96,NNW,327,0.0,5.0,61,0.00,,,0.00,Wunderground v.1.13,2013-04-15 20:46:00,
2013-04-15 16:52:00,84.9,70.4,29.96,WNW,302,1.0,5.0,62,0.00,,,0.00,Wunderground v.1.13,2013-04-15 20:52:00,
2013-04-15 16:58:00,84.6,70.6,29.96,NW,306,0.0,5.0,63,0.00,,,0.00,Wunderground v.1.13,2013-04-15 20:58:00,
2013-04-15 17:04:00,84.7,70.7,29.96,West,277,0.0,5.0,63,0.00,,,0.00,Wunderground v.1.13,2013-04-15 21:04:00,
2013-04-15 17:10:00,85.0,70.5,29.96,WNW,286,0.0,0.0,62,0.00,,,0.00,Wunderground v.1.13,2013-04-15 21:10:00,
2013-04-15 17:16:00,84.9,70.4,29.96,WNW,286,0.0,11.0,62,0.00,,,0.00,Wunderground v.1.13,2013-04-15 21:16:00,
2013-04-15 17:22:00,84.8,70.3,29.96,NW,313,0.0,11.0,62,0.00,,,0.00,Wunderground v.1.13,2013-04-15 21:22:00,
2013-04-15 17:28:00,84.3,70.3,29.97,NW,304,1.0,11.0,63,0.00,,,0.00,Wunderground v.1.13,2013-04-15 21:28:00,
2013-04-15 17:34:00,84.4,70.4,29.97,WNW,299,0.0,11.0,63,0.00,,,0.00,Wunderground v.1.13,2013-04-15 21:34:00,
2013-04-15 17:40:00,84.3,70.3,29.97,NW,304,0.0,11.0,63,0.00,,,0.00,Wunderground v.1.13,2013-04-15 21:40:00,
2013-04-15 17:46:00,84.1,70.1,29.97,NW,313,0.0,11.0,63,0.00,,,0.00,Wunderground v.1.13,2013-04-15 21:46:00,
2013-04-15 17:52:00,84.1,70.6,29.97,NW,315,0.0,11.0,64,0.00,,,0.00,Wunderground v.1.13,2013-04-15 21:52:00,
2013-04-15 17:58:00,84.0,70.5,29.97,NNW,327,0.0,11.0,64,0.00,,,0.00,Wunderground v.1.13,2013-04-15 21:58:00,
2013-04-15 18:04:00,84.1,70.6,29.97,NW,314,1.0,11.0,64,0.00,,,0.00,Wunderground v.1.13,2013-04-15 22:04:00,
2013-04-15 18:10:00,83.9,70.9,29.97,West,272,0.0,1.0,65,0.00,,,0.00,Wunderground v.1.13,2013-04-15 22:10:00,
2013-04-15 18:16:00,84.0,70.5,29.97,NW,304,0.0,6.0,64,0.00,,,0.00,Wunderground v.1.13,2013-04-15 22:16:00,
2013-04-15 18:22:00,84.2,70.7,29.98,WNW,292,0.0,6.0,64,0.00,,,0.00,Wunderground v.1.13,2013-04-15 22:22:00,
2013-04-15 18:28:00,84.5,71.0,29.97,West,281,0.0,6.0,64,0.00,,,0.00,Wunderground v.1.13,2013-04-15 22:28:00,
2013-04-15 18:34:00,84.3,70.3,29.98,NW,311,0.0,6.0,63,0.00,,,0.00,Wunderground v.1.13,2013-04-15 22:34:00,
2013-04-15 18:40:00,83.5,70.0,29.98,NW,310,0.0,6.0,64,0.00,,,0.00,Wunderground v.1.13,2013-04-15 22:40:00,
2013-04-15 18:46:00,83.0,70.0,29.98,NW,315,0.0,6.0,65,0.00,,,0.00,Wunderground v.1.13,2013-04-15 22:46:00,
2013-04-15 18:52:00,82.8,70.3,29.98,WNW,301,0.0,6.0,66,0.00,,,0.00,Wunderground v.1.13,2013-04-15 22:52:00,
2013-04-15 18:58:00,82.7,70.2,29.98,WNW,283,0.0,6.0,66,0.00,,,0.00,Wunderground v.1.13,2013-04-15 22:58:00,
2013-04-15 19:04:00,82.2,69.7,29.98,West,263,0.0,6.0,66,0.00,,,0.00,Wunderground v.1.13,2013-04-15 23:04:00,
2013-04-15 19:10:00,81.6,69.1,29.99,West,281,0.0,0.0,66,0.00,,,0.00,Wunderground v.1.13,2013-04-15 23:10:00,
2013-04-15 19:16:00,81.1,69.1,29.99,WNW,284,0.0,3.0,67,0.00,,,0.00,Wunderground v.1.13,2013-04-15 23:16:00,
2013-04-15 19:22:00,80.8,68.8,29.99,WNW,284,0.0,3.0,67,0.00,,,0.00,Wunderground v.1.13,2013-04-15 23:22:00,
2013-04-15 19:28:00,80.3,68.8,29.99,West,277,0.0,3.0,68,0.00,,,0.00,Wunderground v.1.13,2013-04-15 23:28:00,
2013-04-15 19:34:00,80.0,68.9,29.99,West,276,0.0,3.0,69,0.00,,,0.00,Wunderground v.1.13,2013-04-15 23:34:00,
2013-04-15 19:40:00,79.7,68.6,30.00,West,276,0.0,3.0,69,0.00,,,0.00,Wunderground v.1.13,2013-04-15 23:40:00,
2013-04-15 19:46:00,79.4,68.8,30.00,West,276,0.0,3.0,70,0.00,,,0.00,Wunderground v.1.13,2013-04-15 23:46:00,
2013-04-15 19:52:00,79.3,68.7,30.00,West,277,0.0,3.0,70,0.00,,,0.00,Wunderground v.1.13,2013-04-15 23:52:00,
2013-04-15 19:58:00,79.2,68.6,30.00,West,276,0.0,3.0,70,0.00,,,0.00,Wunderground v.1.13,2013-04-15 23:58:00,
2013-04-15 20:04:00,79.0,68.4,30.00,WNW,287,0.0,3.0,70,0.00,,,0.00,Wunderground v.1.13,2013-04-16 00:04:00,
2013-04-15 20:10:00,78.6,68.4,30.01,NW,323,0.0,0.0,71,0.00,,,0.00,Wunderground v.1.13,2013-04-16 00:10:00,
2013-04-15 20:16:00,78.3,68.1,30.01,NW,319,0.0,0.0,71,0.00,,,0.00,Wunderground v.1.13,2013-04-16 00:16:00,
2013-04-15 20:22:00,78.1,67.9,30.01,NW,324,0.0,0.0,71,0.00,,,0.00,Wunderground v.1.13,2013-04-16 00:22:00,
2013-04-15 20:28:00,77.8,67.6,30.02,NW,324,0.0,0.0,71,0.00,,,0.00,Wunderground v.1.13,2013-04-16 00:28:00,
2013-04-15 20:34:00,77.6,67.9,30.02,NW,324,0.0,0.0,72,0.00,,,0.00,Wunderground v.1.13,2013-04-16 00:34:00,
2013-04-15 20:40:00,77.5,67.8,30.02,NW,324,0.0,0.0,72,0.00,,,0.00,Wunderground v.1.13,2013-04-16 00:40:00,
2013-04-15 20:46:00,77.3,67.6,30.03,NW,323,0.0,0.0,72,0.00,,,0.00,Wunderground v.1.13,2013-04-16 00:46:00,
2013-04-15 20:52:00,77.1,67.4,30.03,NW,323,0.0,0.0,72,0.00,,,0.00,Wunderground v.1.13,2013-04-16 00:52:00,
2013-04-15 20:58:00,77.0,67.7,30.03,NW,323,0.0,0.0,73,0.00,,,0.00,Wunderground v.1.13,2013-04-16 00:58:00,
2013-04-15 21:04:00,76.9,67.2,30.04,NW,324,0.0,0.0,72,0.00,,,0.00,Wunderground v.1.13,2013-04-16 01:04:00,
2013-04-15 21:10:00,76.8,67.5,30.04,NW,324,0.0,0.0,73,0.00,,,0.00,Wunderground v.1.13,2013-04-16 01:10:00,
2013-04-15 21:16:00,76.7,67.8,30.04,NW,324,0.0,0.0,74,0.00,,,0.00,Wunderground v.1.13,2013-04-16 01:16:00,
2013-04-15 21:22:00,76.6,67.3,30.04,NW,324,0.0,0.0,73,0.00,,,0.00,Wunderground v.1.13,2013-04-16 01:22:00,
2013-04-15 21:28:00,76.5,67.6,30.04,NW,324,0.0,0.0,74,0.00,,,0.00,Wunderground v.1.13,2013-04-16 01:28:00,
2013-04-15 21:34:00,76.4,67.9,30.05,NW,323,0.0,0.0,75,0.00,,,0.00,Wunderground v.1.13,2013-04-16 01:34:00,
2013-04-15 21:40:00,76.4,67.9,30.05,NW,324,0.0,0.0,75,0.00,,,0.00,Wunderground v.1.13,2013-04-16 01:40:00,
2013-04-15 21:46:00,76.3,68.2,30.05,NW,324,0.0,0.0,76,0.00,,,0.00,Wunderground v.1.13,2013-04-16 01:46:00,
2013-04-15 21:52:00,76.1,68.0,30.05,NW,324,0.0,0.0,76,0.00,,,0.00,Wunderground v.1.13,2013-04-16 01:52:00,
2013-04-15 21:58:00,75.9,67.8,30.05,NW,324,0.0,0.0,76,0.00,,,0.00,Wunderground v.1.13,2013-04-16 01:58:00,
2013-04-15 22:04:00,75.8,68.1,30.06,NW,323,0.0,0.0,77,0.00,,,0.00,Wunderground v.1.13,2013-04-16 02:04:00,
2013-04-15 22:10:00,75.6,67.9,30.06,NW,324,0.0,0.0,77,0.00,,,0.00,Wunderground v.1.13,2013-04-16 02:10:00,
2013-04-15 22:16:00,75.4,68.1,30.06,NW,324,0.0,0.0,78,0.00,,,0.00,Wunderground v.1.13,2013-04-16 02:16:00,
2013-04-15 22:22:00,75.2,67.9,30.06,NW,323,0.0,0.0,78,0.00,,,0.00,Wunderground v.1.13,2013-04-16 02:22:00,
2013-04-15 22:28:00,75.0,67.7,30.06,NW,324,0.0,0.0,78,0.00,,,0.00,Wunderground v.1.13,2013-04-16 02:28:00,
2013-04-15 22:34:00,74.9,67.6,30.06,NW,324,0.0,0.0,78,0.00,,,0.00,Wunderground v.1.13,2013-04-16 02:34:00,
2013-04-15 22:40:00,74.8,67.8,30.06,NW,324,0.0,0.0,79,0.00,,,0.00,Wunderground v.1.13,2013-04-16 02:40:00,
2013-04-15 22:46:00,74.7,68.1,30.06,NW,323,0.0,0.0,80,0.00,,,0.00,Wunderground v.1.13,2013-04-16 02:46:00,
2013-04-15 22:52:00,74.6,68.0,30.06,NW,323,0.0,0.0,80,0.00,,,0.00,Wunderground v.1.13,2013-04-16 02:52:00,
2013-04-15 22:58:00,74.4,67.8,30.07,NW,324,0.0,0.0,80,0.00,,,0.00,Wunderground v.1.13,2013-04-16 02:58:00,
2013-04-15 23:04:00,74.3,67.7,30.07,NW,323,0.0,0.0,80,0.00,,,0.00,Wunderground v.1.13,2013-04-16 03:04:00,
2013-04-15 23:10:00,74.2,67.6,30.07,NW,324,0.0,0.0,80,0.00,,,0.00,Wunderground v.1.13,2013-04-16 03:10:00,
2013-04-15 23:16:00,74.6,68.0,30.07,NNW,337,0.0,0.0,80,0.00,,,0.00,Wunderground v.1.13,2013-04-16 03:16:00,
2013-04-15 23:22:00,74.9,68.3,30.07,NNW,338,0.0,0.0,80,0.00,,,0.00,Wunderground v.1.13,2013-04-16 03:22:00,
2013-04-15 23:28:00,75.1,68.1,30.07,NNW,337,0.0,0.0,79,0.00,,,0.00,Wunderground v.1.13,2013-04-16 03:28:00,
2013-04-15 23:34:00,75.0,68.4,30.07,NNW,338,0.0,0.0,80,0.00,,,0.00,Wunderground v.1.13,2013-04-16 03:34:00,
2013-04-15 23:40:00,74.9,68.7,30.07,NNW,337,0.0,0.0,81,0.00,,,0.00,Wunderground v.1.13,2013-04-16 03:40:00,
2013-04-15 23:46:00,74.9,68.7,30.07,NNW,338,0.0,0.0,81,0.00,,,0.00,Wunderground v.1.13,2013-04-16 03:46:00,
2013-04-15 23:52:00,75.0,68.8,30.07,NNW,337,0.0,0.0,81,0.00,,,0.00,Wunderground v.1.13,2013-04-16 03:52:00,
2013-04-15 23:58:00,74.9,68.7,30.07,NNW,338,0.0,0.0,81,0.00,,,0.00,Wunderground v.1.13,2013-04-16 03:58:00,